Weather in Weligama

Sri Lanka     5°58′47″N   80°25′25″E
temp.,
°C
wind,
m/s
gust,
m/s
humid.,
%
clouds,
%
prec.,
mm/h
press.,
hPa
HPBL,
m
23 april, fri
fri2323:30+25w23928 2.6 1012254
02:30+25wnw359222 2.0 1010297
05:30+24wnw249321 2.7 1010250
08:30+28wnw36808 0.3 1012694
11:30+31w456019 0.3 10111464
14:30+31w566213 0.0 10081363
17:30+28w467360 0.0 1009780
20:30+26wnw368793 0.0 1010325
24 april, sat
sat2423:30+25wnw3590100 0.1 1011284
02:30+25wnw3591100 3.9 1009279
05:30+25wnw259399 12.1 1009206
08:30+27nw248469 4.8 1012378
11:30+31wsw446374 5.0 10101358
14:30+31wsw556237 0.3 10081247
17:30+28w467451 0.3 1008664
20:30+25w349080 0.8 1010272
25 april, sun
sun2523:30+25wnw2391100 0.8 1010245
02:30+25wnw2393100 0.1 1008220
05:30+25nw239316 0.1 1009179
08:30+28wnw23805 0.0 1011477
11:30+32sw436148 0.1 10101477
14:30+31wsw446347 0.3 10081180
17:30+29w4675100 0.3 1008674
20:30+26w258690 0.1 1010285
26 april, mon
mon2623:30+26w238874 0.3 1010234
02:30+25wnw229072 0.1 1008220
05:30+26w22885 0.3 1009217
08:30+29wsw2369100 0.0 1011970
11:30+31sw4459100 0.1 10101445
14:30+31sw446283 0.0 10071370
17:30+29wsw357587 0.1 1008738
20:30+26wsw228686 0.1 1010226
27 april, tue
tue2723:30+26wsw2287100 0.3 1010231
02:30+26wsw238771 0.5 1008259
05:30+25w229020 0.6 1009249
08:30+29wsw247626 0.3 1011775
11:30+31wsw346284 0.9 10101278
14:30+31sw446117 0.3 10081347
17:30+29wsw35731 0.3 1008806
20:30+26w238519 0.0 1010271